Miscellaneous Local Product
Issued by NWS North Platte, NE

Home | Current Version | Previous Version | Text Only | Print | Product List | Glossary On
Versions: 1 2 3 4 5 6 7 8 9 10 11 12 13 14 15 16 17 18 19 20 21 22 23 24 25 26 27 28 29 30 31 32 33 34 35 36 37 38 39 40 41 42 43 44 45 46 47 48 49 50
664
AXUS43 KLBF 191810
MISLBF


WESTERN AND NORTH CENTRAL NEBRASKA HOURLY WEATHER ROUNDUP
NATIONAL WEATHER SERVICE NORTH PLATTE NE
1200 PM CST MON FEB 19 2018

NOTE: "FAIR" INDICATES FEW OR NO CLOUDS BELOW 12,000 FEET WITH NO
SIGNIFICANT WEATHER AND/OR OBSTRUCTIONS TO VISIBILITY.

NOTE: STATIONS NOT REPORTING VARIABLES SUCH AS SKY/WEATHER OR
PRESSURE ARE PROVIDED BY RAWS AND APRS NETWORKS AND ARE NOT UNDER
NATIONAL WEATHER SERVICE QUALITY CONTROL.

...OBSERVATIONS IN AND NEAR THE EASTERN PANHANDLE OF NEBRASKA...

CITY           SKY/WX    TMP DP  RH WIND       PRES   REMARKS
PINE RIDGE     LGT SNOW   5  -2  72 N12       29.93F WCI -11
GORDON         FLURRIES   4  -3  71 N15G21    29.89R WCI -14
CHADRON        LGT SNOW   4  -3  73 NE16      29.94F WCI -15
ALLIANCE       CLOUDY     4   0  83 N17       29.83S FOG     WCI -16
SIDNEY         LGT SNOW   8   4  83 N12       29.77S FOG     WCI  -7
$$

...OBSERVATIONS IN NORTHERN NEBRASKA AND FAR SOUTHERN SOUTH DAKOTA...

CITY           SKY/WX    TMP DP  RH WIND       PRES   REMARKS
WINNER         LGT SNOW   9   4  80 N20       29.99S WCI -10
VALENTINE      LGT SNOW   9   2  73 N14       29.94S WCI  -7
AINSWORTH      LGT SNOW   8   5  84 N18       29.91S WCI -10
O`NEILL        LGT SNOW  11   8  85 N23G30    29.90S WCI  -8
THEDFORD       CLOUDY    10   5  81 N16G22    29.87F WCI  -8
BROKEN BOW     FLURRIES  12   7  80 N23G30    29.85F WCI  -7
ORD            LGT SNOW  14   9  80 N20       29.87F WCI  -3
ALBION         LGT SNOW  16  11  82 N15G21    29.85F WCI   1
$$

...OBSERVATIONS IN SOUTHWEST NEBRASKA AND FAR NORTHEAST COLORADO...

CITY           SKY/WX    TMP DP  RH WIND       PRES   REMARKS
WRAY           LGT SNOW  16  10  79 NE9       29.80F WCI   4
HOLYOKE        FLURRIES  18  12  79 NE9       29.80F WCI   6
IMPERIAL       FLURRIES  13   8  81 N15       29.82F WCI  -3
OGALLALA       CLOUDY    13   8  81 NE12      29.84S WCI  -1
NORTH PLATTE   FLURRIES  13   6  74 N15       29.85F WCI  -3
MCCOOK         LGT SNOW  17  12  80 N10       29.85S WCI   5
LEXINGTON      FLURRIES  16  11  80 N18       29.85F WCI   0
GOTHENBURG       N/A     11   6  80 N12         N/A  WCI  -3
CALLAWAY         N/A     12   9  87 N14         N/A  WCI  -3
$$

...OBSERVATIONS IN CENTRAL LINCOLN COUNTY AREA...

CITY           SKY/WX    TMP DP  RH WIND       PRES   REMARKS
N.P. AIRPORT   FLURRIES  13   6  74 N15       29.85F WCI  -3
$$

...OBSERVATIONS ACROSS THE ROCKIES AND WESTERN HIGH PLAINS...

CITY           SKY/WX    TMP DP  RH WIND       PRES   REMARKS
RAPID CITY     LGT SNOW   2  -4  76 N16       29.99F WCI -18
SCOTTSBLUFF    LGT SNOW   7   0  73 N8        29.83F WCI  -6
CHEYENNE       CLOUDY     4   2  91 E12       29.58F FOG     WCI -12
DENVER         LGT SNOW  11   7  84 E12       29.63F WCI  -3
BERTHOUD PASS  PTSUNNY   19   9  63 SW16G38   29.41S WCI   5
COPPER MTN     SNOW      23  14  68 S25G33    29.42S VSB 1/2 WCI   7
MONARCH PASS   CLOUDY    21  19  93 SW49G59   29.52F WCI  -1
ASPEN          LGT SNOW  32  24  72 NW8       29.36F WCI  25
LARAMIE        MOSUNNY   11   5  77 SE33G40   29.32F WCI -12
CASPER         SNOW      -2  -6  83 NE21      29.66F VSB 1/4 WCI -25
$$

...OBSERVATIONS ACROSS THE NORTHERN PLAINS...

CITY           SKY/WX    TMP DP  RH WIND       PRES   REMARKS
BISMARCK       CLOUDY     6  -4  63 NE12      30.20R WCI  -9
FARGO          FAIR       9   1  70 N20G29    30.17F WCI -10
PIERRE         LGT SNOW   8   3  80 N20       30.06S WCI -11
SIOUX FALLS    LGT SNOW  17  12  80 NE15      29.88S WCI   2
$$

...OBSERVATIONS ACROSS THE CENTRAL AND SOUTHERN PLAINS...

CITY           SKY/WX    TMP DP  RH WIND       PRES   REMARKS
OMAHA          CLOUDY    24  22  91 NW15      29.82R FOG     WCI  11
GRAND ISLAND   LGT SNOW  17  13  84 N16       29.87R FOG     WCI   2
KANSAS CITY    CLOUDY    35  32  88 NW9       29.76R WCI  28
WICHITA        CLOUDY    31  27  85 NW18      29.81S WCI  19
DODGE CITY     CLOUDY    25  16  68 NW12      29.82S WCI  14
OKLAHOMA CITY  LGT RAIN  70  59  68 S21G26    29.75S
DALLAS         CLOUDY    77  63  61 S25G35    29.83S
AMARILLO       MOSUNNY   69  39  33 W25G32    29.71F
$$




USA.gov is the U.S. government's official web portal to all federal, state and local government web resources and services.